TimeAST,TemperatureF,Dew PointF,Humidity,Sea Level PressureIn,VisibilityMPH,Wind Direction,Wind SpeedMPH,Gust SpeedMPH,PrecipitationIn,Events,Conditions,WindDirDegrees,DateUTC
12:00 AM,82.4,73.4,74,30.06,6.2,East,12.7,-,N/A,,Scattered Clouds,80,2013-07-17 04:00:00
1:00 AM,82.4,73.4,74,30.04,6.2,East,9.2,-,N/A,,Mostly Cloudy,80,2013-07-17 05:00:00
2:00 AM,81,74,74,30.04,12,East,29.1,,,Rain,Light Rain Showers,80,2013-07-17 06:00:00
2:00 AM,80.6,73.4,79,30.04,6.2,East,15.0,-,N/A,,Scattered Clouds,80,2013-07-17 06:00:00
3:00 AM,80.6,75.2,84,30.01,6.2,ENE,12.7,-,N/A,,Mostly Cloudy,70,2013-07-17 07:00:00
4:00 AM,80.6,73.4,79,30.01,6.2,ENE,12.7,-,N/A,,Scattered Clouds,70,2013-07-17 08:00:00
5:00 AM,81,74,74,30.03,12,ENE,22.4,,,,Partly Cloudy,70,2013-07-17 09:00:00
5:00 AM,80.6,73.4,79,30.01,6.2,ENE,11.5,-,N/A,,Scattered Clouds,70,2013-07-17 09:00:00
6:00 AM,82.4,75.2,79,30.04,6.2,ENE,11.5,-,N/A,,Mostly Cloudy,70,2013-07-17 10:00:00
7:00 AM,82.4,75.2,79,30.04,6.2,ENE,15.0,-,N/A,,Mostly Cloudy,70,2013-07-17 11:00:00
8:00 AM,84,74,65,30.06,12,East,33.6,,,,Partly Cloudy,80,2013-07-17 12:00:00
8:00 AM,84.2,75.2,74,30.06,6.2,East,17.3,-,N/A,,Scattered Clouds,80,2013-07-17 12:00:00
9:00 AM,84.2,75.2,74,30.06,6.2,ENE,20.7,-,N/A,,Partly Cloudy,70,2013-07-17 13:00:00
10:00 AM,86.0,75.2,70,30.06,3.1,ENE,17.3,-,N/A,Rain,Light Rain Showers,70,2013-07-17 14:00:00
11:00 AM,85,75,66,30.07,5,East,29.1,,,Rain,Light Rain Showers,80,2013-07-17 15:00:00
11:00 AM,86.0,75.2,70,30.06,-9999.0,ENE,17.3,-,N/A,,Partly Cloudy,70,2013-07-17 15:00:00
12:00 PM,86.0,75.2,70,30.04,6.2,East,12.7,25.3,N/A,,Partly Cloudy,90,2013-07-17 16:00:00
1:00 PM,86.0,73.4,66,30.04,6.2,East,17.3,-,N/A,,Partly Cloudy,90,2013-07-17 17:00:00
2:00 PM,88,74,56,30.03,11,East,15.0,,,,Widespread Dust,100,2013-07-17 18:00:00
2:00 PM,87.8,73.4,62,30.01,6.2,East,18.4,-,N/A,,Partly Cloudy,90,2013-07-17 18:00:00
3:00 PM,87.8,75.2,66,30.01,6.2,East,13.8,-,N/A,Rain,Light Rain Showers,100,2013-07-17 19:00:00
4:00 PM,84.2,75.2,74,30.01,6.2,East,18.4,-,N/A,,Scattered Clouds,90,2013-07-17 20:00:00
5:00 PM,85,76,68,30.02,10,East,18.4,,,,Mostly Cloudy,90,2013-07-17 21:00:00
5:00 PM,84.2,75.2,74,30.01,6.2,East,11.5,-,N/A,,Mostly Cloudy,90,2013-07-17 21:00:00
6:00 PM,82.4,71.6,70,30.01,6.2,ESE,15.0,-,N/A,,Partly Cloudy,110,2013-07-17 22:00:00
7:00 PM,82.4,75.2,79,30.01,6.2,East,16.1,-,N/A,,Partly Cloudy,100,2013-07-17 23:00:00
8:00 PM,82,74,72,30.05,11,East,17.3,,,,Widespread Dust,100,2013-07-18 00:00:00
8:00 PM,82.4,75.2,79,30.04,6.2,East,17.3,-,N/A,,Mostly Cloudy,100,2013-07-18 00:00:00
9:00 PM,82.4,75.2,79,30.04,3.7,East,21.9,-,N/A,Rain,Light Rain Showers,100,2013-07-18 01:00:00
10:00 PM,82.4,75.2,79,30.04,6.2,ESE,16.1,28.8,N/A,,Scattered Clouds,110,2013-07-18 02:00:00
11:00 PM,82.4,75.2,79,30.04,6.2,East,17.3,-,N/A,,Scattered Clouds,90,2013-07-18 03:00:00